• In Deutschland
  • Länderverzeichnis
  • Für 7 Tage
  • Wassertemperatur
  • Satellitenkarten
  • Wetterkarte
  • Widgets
  • user-avatar
    Anmelden

    Stündliche Wetter Bengazi

    Heute, 19 November, Sonntag

    Zeit Temperatur Niederschläge Wind Luftdruck Luftfeuchtigkeit
    00:00 +20°C° 0 mm 4 m/S 761 mmHg 72%
    01:00 +20°C° 0 mm 4 m/S 761 mmHg 72%
    02:00 +20°C° 0,1 mm 4 m/S 761 mmHg 72%
    03:00 +19°C° 0,1 mm 3 m/S 761 mmHg 72%
    04:00 +19°C° 0,1 mm 3 m/S 761 mmHg 73%
    05:00 +19°C° 0,2 mm 3 m/S 761 mmHg 73%
    06:00 +19°C° 0,2 mm 3 m/S 761 mmHg 74%
    07:00 +19°C° 0 mm 3 m/S 761 mmHg 74%
    08:00 +20°C° 0,3 mm 4 m/S 761 mmHg 71%
    09:00 +20°C° 0,3 mm 4 m/S 762 mmHg 69%
    10:00 +21°C° 0,3 mm 5 m/S 762 mmHg 66%
    11:00 +21°C° 0,4 mm 5 m/S 762 mmHg 66%
    12:00 +21°C° 0,4 mm 6 m/S 761 mmHg 65%
    13:00 +21°C° 0 mm 7 m/S 761 mmHg 66%
    14:00 +21°C° 0,2 mm 7 m/S 761 mmHg 66%
    15:00 +21°C° 0,2 mm 6 m/S 761 mmHg 67%
    16:00 +21°C° 0,2 mm 6 m/S 761 mmHg 68%
    17:00 +20°C° 0,2 mm 6 m/S 761 mmHg 69%
    18:00 +20°C° 0,2 mm 6 m/S 762 mmHg 70%
    19:00 +20°C° 0,2 mm 6 m/S 762 mmHg 71%
    20:00 +20°C° 0,2 mm 6 m/S 762 mmHg 71%
    21:00 +20°C° 0,2 mm 6 m/S 762 mmHg 72%
    22:00 +20°C° 0,2 mm 6 m/S 762 mmHg 73%
    23:00 +20°C° 0,2 mm 6 m/S 762 mmHg 73%

    Morgen, 20 November, Montag

    Zeit Temperatur Niederschläge Wind Luftdruck Luftfeuchtigkeit
    00:00 +20°C° 0,2 mm 6 m/S 762 mmHg 74%
    01:00 +20°C° 0,2 mm 6 m/S 762 mmHg 74%
    02:00 +20°C° 0,2 mm 6 m/S 762 mmHg 74%
    03:00 +19°C° 0,2 mm 6 m/S 762 mmHg 74%
    04:00 +19°C° 0,2 mm 6 m/S 762 mmHg 74%
    05:00 +19°C° 0 mm 6 m/S 763 mmHg 74%
    06:00 +19°C° 0 mm 6 m/S 763 mmHg 74%
    07:00 +19°C° 0 mm 6 m/S 763 mmHg 73%
    08:00 +20°C° 0,1 mm 6 m/S 763 mmHg 70%
    09:00 +21°C° 0,1 mm 7 m/S 764 mmHg 67%
    10:00 +21°C° 0,1 mm 7 m/S 764 mmHg 63%
    11:00 +21°C° 0,1 mm 8 m/S 764 mmHg 63%
    12:00 +21°C° 0,1 mm 8 m/S 764 mmHg 62%
    13:00 +22°C° 0,1 mm 8 m/S 763 mmHg 62%
    14:00 +21°C° 0 mm 8 m/S 763 mmHg 62%
    15:00 +21°C° 0 mm 8 m/S 763 mmHg 62%
    16:00 +21°C° 0 mm 8 m/S 763 mmHg 63%
    17:00 +21°C° 0,1 mm 8 m/S 764 mmHg 63%
    18:00 +20°C° 0,1 mm 7 m/S 764 mmHg 64%
    19:00 +20°C° 0,1 mm 7 m/S 764 mmHg 65%
    20:00 +20°C° 0,1 mm 7 m/S 765 mmHg 66%
    21:00 +20°C° 0,1 mm 6 m/S 765 mmHg 67%
    22:00 +20°C° 0,1 mm 6 m/S 765 mmHg 67%
    23:00 +20°C° 0 mm 6 m/S 766 mmHg 69%

    übermorgen, 21 November, Dienstag

    Zeit Temperatur Niederschläge Wind Luftdruck Luftfeuchtigkeit
    00:00 +19°C° 0 mm 6 m/S 766 mmHg 70%
    01:00 +19°C° 0 mm 6 m/S 766 mmHg 72%
    02:00 +19°C° 0 mm 6 m/S 766 mmHg 71%
    03:00 +17°C° 0 mm 6 m/S 765 mmHg 70%
    04:00 +17°C° 0 mm 6 m/S 765 mmHg 68%
    05:00 +17°C° 0 mm 6 m/S 766 mmHg 66%
    06:00 +17°C° 0 mm 6 m/S 766 mmHg 63%
    07:00 +17°C° 0 mm 6 m/S 766 mmHg 61%
    08:00 +17°C° 0 mm 5 m/S 766 mmHg 57%
    09:00 +19°C° 0 mm 5 m/S 767 mmHg 54%
    10:00 +20°C° 0 mm 5 m/S 767 mmHg 51%
    11:00 +20°C° 0 mm 5 m/S 767 mmHg 50%
    12:00 +20°C° 0 mm 5 m/S 766 mmHg 49%
    13:00 +21°C° 0 mm 4 m/S 766 mmHg 48%
    14:00 +20°C° 0 mm 4 m/S 766 mmHg 49%
    15:00 +20°C° 0 mm 5 m/S 766 mmHg 50%
    16:00 +20°C° 0 mm 5 m/S 766 mmHg 52%
    17:00 +19°C° 0 mm 4 m/S 766 mmHg 54%
    18:00 +19°C° 0 mm 4 m/S 766 mmHg 56%
    19:00 +19°C° 0 mm 3 m/S 767 mmHg 58%
    20:00 +18°C° 0 mm 3 m/S 767 mmHg 59%
    21:00 +18°C° 0 mm 2 m/S 767 mmHg 61%
    22:00 +18°C° 0 mm 2 m/S 767 mmHg 62%
    23:00 +18°C° 0 mm 2 m/S 767 mmHg 63%

    22 November, Mittwoch

    Zeit Temperatur Niederschläge Wind Luftdruck Luftfeuchtigkeit
    00:00 +17°C° 0 mm 2 m/S 767 mmHg 64%
    01:00 +17°C° 0 mm 2 m/S 767 mmHg 66%
    02:00 +17°C° 0 mm 2 m/S 766 mmHg 66%
    03:00 +17°C° 0 mm 2 m/S 766 mmHg 67%
    04:00 +17°C° 0 mm 2 m/S 766 mmHg 68%
    05:00 +18°C° 0 mm 1 m/S 766 mmHg 68%
    06:00 +18°C° 0 mm 1 m/S 767 mmHg 68%
    07:00 +18°C° 0 mm 1 m/S 767 mmHg 68%
    08:00 +18°C° 0 mm 1 m/S 767 mmHg 64%
    09:00 +19°C° 0 mm 1 m/S 767 mmHg 61%
    10:00 +20°C° 0 mm 1 m/S 767 mmHg 57%
    11:00 +20°C° 0 mm 1 m/S 767 mmHg 54%
    12:00 +20°C° 0 mm 1 m/S 767 mmHg 52%
    13:00 +21°C° 0 mm 1 m/S 766 mmHg 49%
    14:00 +21°C° 0 mm 1 m/S 766 mmHg 49%
    15:00 +20°C° 0 mm 2 m/S 766 mmHg 50%
    16:00 +20°C° 0 mm 2 m/S 766 mmHg 51%
    17:00 +19°C° 0 mm 2 m/S 766 mmHg 53%
    18:00 +20°C° 0 mm 1 m/S 766 mmHg 55%
    19:00 +20°C° 0 mm 1 m/S 767 mmHg 57%
    20:00 +20°C° 0 mm 1 m/S 767 mmHg 58%
    21:00 +19°C° 0 mm 1 m/S 767 mmHg 59%
    22:00 +19°C° 0 mm 1 m/S 767 mmHg 60%
    23:00 +19°C° 0 mm 1 m/S 767 mmHg 60%

    23 November, Donnerstag

    Zeit Temperatur Niederschläge Wind Luftdruck Luftfeuchtigkeit
    00:00 +19°C° 0 mm 1 m/S 767 mmHg 61%
    01:00 +18°C° 0 mm 1 m/S 767 mmHg 62%
    02:00 +18°C° 0 mm 1 m/S 767 mmHg 62%
    03:00 +18°C° 0 mm 1 m/S 767 mmHg 63%
    04:00 +18°C° 0 mm 1 m/S 767 mmHg 64%
    05:00 +18°C° 0 mm 1 m/S 767 mmHg 63%
    06:00 +18°C° 0 mm 1 m/S 767 mmHg 63%
    07:00 +17°C° 0 mm 2 m/S 767 mmHg 63%
    08:00 +18°C° 0 mm 2 m/S 767 mmHg 59%
    09:00 +19°C° 0 mm 1 m/S 768 mmHg 56%
    10:00 +20°C° 0 mm 1 m/S 768 mmHg 52%
    11:00 +20°C° 0 mm 2 m/S 767 mmHg 52%
    12:00 +20°C° 0 mm 2 m/S 767 mmHg 51%
    13:00 +21°C° 0 mm 3 m/S 767 mmHg 50%
    14:00 +21°C° 0 mm 3 m/S 767 mmHg 54%
    15:00 +21°C° 0 mm 3 m/S 767 mmHg 57%
    16:00 +21°C° 0 mm 4 m/S 767 mmHg 60%
    17:00 +20°C° 0 mm 3 m/S 767 mmHg 62%
    18:00 +20°C° 0 mm 3 m/S 767 mmHg 64%
    19:00 +20°C° 0 mm 3 m/S 767 mmHg 66%
    20:00 +20°C° 0 mm 3 m/S 768 mmHg 67%
    21:00 +19°C° 0 mm 3 m/S 768 mmHg 68%
    22:00 +19°C° 0 mm 2 m/S 768 mmHg 68%
    23:00 +19°C° 0 mm 2 m/S 768 mmHg 69%

    24 November, Freitag

    Zeit Temperatur Niederschläge Wind Luftdruck Luftfeuchtigkeit
    00:00 +19°C° 0 mm 2 m/S 767 mmHg 70%
    01:00 +19°C° 0 mm 2 m/S 767 mmHg 72%
    02:00 +18°C° 0 mm 2 m/S 767 mmHg 73%
    03:00 +18°C° 0 mm 2 m/S 767 mmHg 74%
    04:00 +18°C° 0 mm 2 m/S 767 mmHg 75%
    05:00 +18°C° 0 mm 2 m/S 767 mmHg 76%
    06:00 +18°C° 0 mm 2 m/S 767 mmHg 76%
    07:00 +18°C° 0 mm 2 m/S 767 mmHg 77%
    08:00 +19°C° 0 mm 2 m/S 768 mmHg 73%
    09:00 +19°C° 0 mm 2 m/S 768 mmHg 68%
    10:00 +21°C° 0 mm 1 m/S 768 mmHg 64%
    11:00 +21°C° 0,1 mm 2 m/S 768 mmHg 62%
    12:00 +21°C° 0,1 mm 2 m/S 767 mmHg 59%
    13:00 +22°C° 0,1 mm 3 m/S 767 mmHg 57%
    14:00 +21°C° 0 mm 3 m/S 767 mmHg 57%
    15:00 +21°C° 0 mm 4 m/S 767 mmHg 58%
    16:00 +21°C° 0 mm 4 m/S 767 mmHg 59%
    17:00 +21°C° 0 mm 4 m/S 767 mmHg 61%
    18:00 +21°C° 0 mm 5 m/S 767 mmHg 63%
    19:00 +20°C° 0 mm 5 m/S 767 mmHg 66%
    20:00 +20°C° 0 mm 5 m/S 768 mmHg 65%
    21:00 +20°C° 0 mm 5 m/S 768 mmHg 65%
    22:00 +19°C° 0 mm 5 m/S 768 mmHg 65%
    23:00 +19°C° 0 mm 5 m/S 768 mmHg 64%
    Mehr zeigen